Weather History for KMNN - December, 2013

Change the Weather History Date:

Friday, December 6, 2013

  Actual Average (KDLZ) Record (KDLZ)
Temperature  
Mean Temperature 27 °F -  
Max Temperature 30 °F 42 °F 69 °F (1956)
Min Temperature 24 °F 26 °F 7 °F (1974)
Degree Days  
Heating Degree Days 38    
Moisture  
Dew Point 25 °F    
Average Humidity 89    
Maximum Humidity 100    
Minimum Humidity 79    
Precipitation  
Precipitation 0.13 in - - ()
Sea Level Pressure  
Sea Level Pressure 30.22 in    
Wind  
Wind Speed 9 mph (North)    
Max Wind Speed 15 mph    
Max Gust Speed -    
Visibility 2 miles    
Events Fog , Snow    
Averages and records for this station are not official NWS values.
T = Trace of Precipitation, MM = Missing Value Source: NWS Daily Summary

Daily Weather History Graph

Daily Weather History Graph

Search for Another Location

Airport or City:

Trip Planner

Search our weather history database for the weather conditions in past years. The results will help you decide how hot, cold, wet, or windy it might be!

Date:

Astronomy

Dec. 06, 2013 Rise Set
Actual Time 7:41 AM EST 5:05 PM EST
Civil Twilight 7:11 AM EST 5:35 PM EST
Nautical Twilight 6:36 AM EST 6:09 PM EST
Astronomical Twilight 6:03 AM EST 6:42 PM EST
Moon 10:45 AM EST 9:36 PM EST
Length of Visible Light 10h 24m
Length of Day
9h 23m
Waxing Crescent, 19% of the Moon is Illuminated
Dec 6
Waxing Crescent
Dec 9
First Quarter
Dec 17
Full
Dec 25
Last Quarter
Jan 1
New

Hourly Weather History & Observations

Time (EST) Temp. Windchill Dew Point Humidity Pressure Visibility Wind Dir Wind Speed Gust Speed Precip Events Conditions
12:05 AM 30.2 °F 22.6 °F 28.4 °F 93% 30.11 in 2.5 mi North 8.1 mph - 0.00 in Snow Light Snow
12:12 AM 30.2 °F 22.6 °F 28.4 °F 93% 30.11 in 2.0 mi North 8.1 mph - 0.00 in Snow Light Snow
12:29 AM 30.2 °F 21.3 °F 28.4 °F 93% 30.11 in 3.0 mi North 10.4 mph - 0.00 in Snow Light Snow
12:53 AM 30.0 °F 23.2 °F 28.0 °F 92% 30.16 in 3.0 mi NNW 6.9 mph - 0.00 in Snow Light Snow
1:08 AM 30.2 °F 23.4 °F 28.4 °F 93% 30.12 in 2.0 mi North 6.9 mph - 0.01 in Snow Light Snow
1:33 AM 30.2 °F 20.2 °F 26.6 °F 86% 30.13 in 3.0 mi NNW 12.7 mph - 0.02 in Snow Light Snow
1:41 AM 28.4 °F 18.0 °F 26.6 °F 93% 30.13 in 2.0 mi NNW 12.7 mph - 0.02 in Snow Light Snow
1:48 AM 28.4 °F 19.1 °F 26.6 °F 93% 30.13 in 1.8 mi NNW 10.4 mph - 0.02 in Snow Light Snow
1:53 AM 28.9 °F 18.6 °F 27.0 °F 92% 30.15 in 1.5 mi NNW 12.7 mph - 0.02 in Snow Light Snow
2:10 AM 28.4 °F 19.1 °F 26.6 °F 93% 30.13 in 2.0 mi NNW 10.4 mph - 0.01 in Snow Light Snow
2:19 AM 28.4 °F 19.7 °F 26.6 °F 93% 30.14 in 2.5 mi NNW 9.2 mph - 0.01 in Snow Light Snow
2:30 AM 28.4 °F 19.1 °F 26.6 °F 93% 30.15 in 4.0 mi NNW 10.4 mph - 0.01 in Snow Light Snow
2:50 AM 28.4 °F 18.0 °F 24.8 °F 86% 30.14 in 4.0 mi NNW 12.7 mph - 0.01 in Snow Light Snow
2:53 AM 28.0 °F 17.5 °F 25.0 °F 88% 30.18 in 4.0 mi NNW 12.7 mph - 0.01 in Snow Light Snow
3:09 AM 28.4 °F 19.1 °F 24.8 °F 86% 30.14 in 2.5 mi NNW 10.4 mph - 0.00 in Snow Light Snow
3:25 AM 28.4 °F 19.1 °F 24.8 °F 86% 30.15 in 3.0 mi NNW 10.4 mph - 0.00 in Snow Light Snow
3:53 AM 28.0 °F 20.0 °F 25.0 °F 88% 30.20 in 2.0 mi NNW 8.1 mph - 0.00 in Snow Light Snow
4:00 AM 28.4 °F 21.2 °F 24.8 °F 86% 30.17 in 1.8 mi NNW 6.9 mph - 0.00 in Snow Light Snow
4:11 AM 26.6 °F 20.0 °F 24.8 °F 93% 30.17 in 1.5 mi NNW 5.8 mph - 0.01 in Snow Light Snow
4:26 AM 26.6 °F 21.2 °F 26.6 °F 100% 30.17 in 2.0 mi NW 4.6 mph - 0.01 in Snow Light Snow
4:45 AM 28.4 °F 23.3 °F 26.6 °F 93% 30.17 in 3.0 mi NW 4.6 mph - 0.01 in Snow Light Snow
4:53 AM 28.0 °F 24.2 °F 26.1 °F 92% 30.20 in 3.0 mi NW 3.5 mph - 0.01 in Snow Light Snow
5:53 AM 28.0 °F 21.7 °F 25.0 °F 88% 30.22 in 3.0 mi NW 5.8 mph - 0.00 in Snow Light Snow
6:53 AM 28.0 °F 24.2 °F 25.0 °F 88% 30.21 in 5.0 mi NNW 3.5 mph - 0.00 in   Overcast
7:53 AM 28.9 °F 23.9 °F 25.0 °F 85% 30.24 in 6.0 mi NW 4.6 mph - N/A   Overcast
8:53 AM 28.9 °F 21.9 °F 24.1 °F 82% 30.27 in 5.0 mi NW 6.9 mph - N/A   Haze
9:53 AM 28.9 °F 22.8 °F 24.1 °F 82% 30.26 in 5.0 mi NNW 5.8 mph - N/A   Haze
10:53 AM 30.0 °F 23.2 °F 24.1 °F 79% 30.27 in 6.0 mi NNW 6.9 mph - N/A   Haze
11:14 AM 30.2 °F 23.4 °F 24.8 °F 80% 30.25 in 6.0 mi NNW 6.9 mph - N/A   Haze
11:53 AM 30.0 °F 21.7 °F 24.1 °F 79% 30.27 in 6.0 mi NNW 9.2 mph - N/A   Haze
12:26 PM 30.2 °F 20.8 °F 24.8 °F 80% 30.24 in 6.0 mi North 11.5 mph - N/A   Haze
12:42 PM 30.2 °F 21.3 °F 24.8 °F 80% 30.23 in 1.8 mi NNW 10.4 mph - 0.00 in Snow Light Snow
12:50 PM 28.4 °F 19.7 °F 24.8 °F 86% 30.23 in 1.2 mi NNW 9.2 mph - 0.00 in Snow Light Snow
12:53 PM 28.9 °F 19.8 °F 24.1 °F 82% 30.27 in 1.2 mi NNW 10.4 mph - 0.00 in Snow Light Snow
1:04 PM 28.4 °F 19.1 °F 24.8 °F 86% 30.22 in 0.8 mi NNW 10.4 mph - 0.00 in Snow Light Snow
1:15 PM 28.4 °F 20.4 °F 26.6 °F 93% 30.20 in 1.0 mi NNW 8.1 mph - 0.00 in Snow Light Snow
1:41 PM 28.4 °F 19.1 °F 24.8 °F 86% 30.20 in 1.8 mi North 10.4 mph - 0.01 in Snow Light Snow
1:53 PM 28.9 °F 22.8 °F 26.1 °F 89% 30.25 in 1.5 mi North 5.8 mph - 0.01 in Snow Light Snow
2:04 PM 28.4 °F 20.4 °F 26.6 °F 93% 30.20 in 1.5 mi North 8.1 mph - 0.00 in Snow Light Snow
2:24 PM 28.4 °F 19.7 °F 24.8 °F 86% 30.19 in 0.8 mi North 9.2 mph - 0.00 in Snow Light Snow
2:40 PM 28.4 °F 19.7 °F 24.8 °F 86% 30.19 in 1.2 mi North 9.2 mph - 0.00 in Snow Light Snow
2:53 PM 28.9 °F 21.1 °F 26.1 °F 89% 30.24 in 1.2 mi North 8.1 mph - 0.00 in Snow Light Snow
2:56 PM 28.4 °F 20.4 °F 24.8 °F 86% 30.19 in 0.8 mi North 8.1 mph - 0.00 in Snow Light Snow
3:12 PM 28.4 °F 20.4 °F 24.8 °F 86% 30.21 in 1.2 mi North 8.1 mph - 0.00 in Snow Light Snow
3:26 PM 28.4 °F 19.1 °F 24.8 °F 86% 30.21 in 0.8 mi North 10.4 mph - 0.01 in Snow Light Snow
3:49 PM 28.4 °F 20.4 °F 24.8 °F 86% 30.20 in 1.0 mi North 8.1 mph - 0.01 in Snow Light Snow
3:53 PM 28.0 °F 19.3 °F 26.1 °F 92% 30.24 in 1.2 mi North 9.2 mph - 0.01 in Snow Light Snow
4:00 PM 28.4 °F 17.0 °F 24.8 °F 86% 30.21 in 1.0 mi North 15.0 mph - 0.00 in Snow Light Snow
4:11 PM 26.6 °F 16.8 °F 24.8 °F 93% 30.22 in 0.8 mi North 10.4 mph - 0.00 in Snow Light Snow
4:51 PM 26.6 °F 18.2 °F 24.8 °F 93% 30.22 in 0.2 mi NNE 8.1 mph - 0.01 in Fog , Snow Snow
4:53 PM 26.1 °F 17.6 °F 24.1 °F 92% 30.27 in 0.2 mi NNE 8.1 mph - 0.02 in Fog , Snow Snow
5:14 PM 26.6 °F 17.5 °F 24.8 °F 93% 30.24 in 1.2 mi North 9.2 mph - 0.01 in Snow Light Snow
5:34 PM 26.6 °F 15.2 °F 24.8 °F 93% 30.24 in 1.5 mi North 13.8 mph - 0.01 in Snow Light Snow
5:40 PM 26.6 °F 15.7 °F 24.8 °F 93% 30.24 in 1.0 mi North 12.7 mph - 0.01 in Snow Light Snow
5:45 PM 26.6 °F 16.8 °F 24.8 °F 93% 30.23 in 0.8 mi North 10.4 mph - 0.01 in Snow Light Snow
5:53 PM 26.1 °F 15.0 °F 24.1 °F 92% 30.27 in 0.5 mi North 12.7 mph - 0.01 in Fog , Snow Snow
6:02 PM 26.6 °F 15.7 °F 24.8 °F 93% 30.22 in 1.0 mi North 12.7 mph - 0.01 in Snow Light Snow
6:07 PM 26.6 °F 16.8 °F 24.8 °F 93% 30.23 in 1.2 mi North 10.4 mph - 0.01 in Snow Light Snow
6:53 PM 25.0 °F 17.1 °F 24.1 °F 96% 30.32 in 1.0 mi North 6.9 mph - 0.02 in Snow Light Snow
7:31 PM 24.8 °F 16.1 °F 23.0 °F 93% 30.26 in 0.8 mi NNE 8.1 mph - 0.01 in Snow Light Snow
7:41 PM 24.8 °F 17.9 °F 23.0 °F 93% 30.31 in 1.0 mi NNE 5.8 mph - 0.01 in Snow Light Snow
7:53 PM 25.0 °F 17.1 °F 23.0 °F 92% 30.34 in 1.0 mi NNE 6.9 mph - 0.02 in Snow Light Snow
8:08 PM 24.8 °F 16.1 °F 23.0 °F 93% 30.29 in 1.5 mi NNE 8.1 mph - 0.00 in Snow Light Snow
8:22 PM 24.8 °F 16.9 °F 23.0 °F 93% 30.29 in 2.0 mi North 6.9 mph - 0.00 in Snow Light Snow
8:35 PM 24.8 °F 16.9 °F 23.0 °F 93% 30.29 in 2.0 mi North 6.9 mph - 0.00 in Snow Light Snow
8:44 PM 24.8 °F 19.1 °F 23.0 °F 93% 30.31 in 2.0 mi North 4.6 mph - 0.00 in Snow Light Snow
8:51 PM 24.8 °F 16.1 °F 23.0 °F 93% 30.30 in 1.8 mi North 8.1 mph - 0.00 in Snow Light Snow
8:52 PM 25.0 °F 17.1 °F 23.0 °F 92% 30.35 in 2.0 mi North 6.9 mph - 0.00 in Snow Light Snow
9:41 PM 24.8 °F 19.1 °F 21.2 °F 86% 30.31 in 4.0 mi NNE 4.6 mph - 0.00 in Snow Light Snow
9:53 PM 24.1 °F 18.2 °F 21.9 °F 91% 30.36 in 5.0 mi NNE 4.6 mph - 0.00 in Snow Light Snow
10:53 PM 24.1 °F 19.7 °F 21.0 °F 88% 30.38 in 6.0 mi NNW 3.5 mph - 0.00 in Snow Light Snow
11:53 PM 24.1 °F - 21.0 °F 88% 30.40 in 8.0 mi Calm Calm - 0.00 in   Overcast